This demonstration page uses our WeatherBlox Daily Observations layout. Learn more.

Left ArrowRight Arrow

53.62937, 11.41316

Hourly Observations for January 2, 2018

Temp ( °F °C ) Dew Point ( °F °C ) Humidity (%) Winds ( mph kmh ) Pressure ( in mb ) Visibility ( mi km ) Precip ( " mm )
5:20 am 05:20 Mostly Clear 37 3 37 3 100 100 WSW 5 7 29.56 1001 7 11 N/A
5:50 am 05:50 Mostly Clear 37 3 36 2 93 93 W 6 9 29.56 1001 7 11 N/A
6:20 am 06:20 Mostly Cloudy 36 2 36 2 100 100 W 5 7 29.56 1001 30 48 N/A
6:50 am 06:50 Mostly Cloudy 36 2 36 2 100 100 WSW 3 6 29.59 1002 30 48 N/A
7:20 am 07:20 Cloudy 36 2 36 2 100 100 WSW 3 6 29.59 1002 30 48 N/A
7:50 am 07:50 Mostly Cloudy 36 2 36 2 100 100 WSW 5 7 29.62 1003 30 48 N/A
8:20 am 08:20 Cloudy 36 2 36 2 100 100 WSW 5 7 29.62 1003 30 48 N/A
8:50 am 08:50 Cloudy 36 2 36 2 100 100 WSW 6 9 29.62 1003 30 48 N/A
9:20 am 09:20 Cloudy 37 3 37 3 100 100 WSW 8 13 29.65 1004 30 48 N/A
9:50 am 09:50 Cloudy 39 4 39 4 100 100 WSW 10 17 29.65 1004 4 7 N/A
10:20 am 10:20 Cloudy 39 4 39 4 100 100 WSW 9 15 29.68 1005 4 6 N/A
10:50 am 10:50 Cloudy with Light Rain 39 4 39 4 100 100 WSW 8 13 29.68 1005 3 5 N/A
11:20 am 11:20 Cloudy with Mist and Fog 41 5 39 4 93 93 WSW 10 17 29.71 1006 3 5 N/A
11:50 am 11:50 Cloudy 41 5 39 4 93 93 WSW 13 20 29.71 1006 4 7 N/A
12:20 pm 12:20 Cloudy 41 5 41 5 100 100 W 13 20 29.71 1006 6 9 N/A
12:50 pm 12:50 Cloudy 43 6 41 5 93 93 WSW 10 17 29.71 1006 30 48 N/A
1:20 pm 13:20 Mostly Cloudy 41 5 39 4 93 93 W 8 13 29.74 1007 30 48 N/A
1:50 pm 13:50 Mostly Cloudy 43 6 41 5 93 93 WSW 10 17 29.74 1007 30 48 N/A
2:20 pm 14:20 Mostly Cloudy 43 6 39 4 87 87 WSW 9 15 29.74 1007 30 48 N/A
2:50 pm 14:50 Mostly Cloudy 43 6 39 4 87 87 WSW 12 19 29.74 1007 30 48 N/A
3:20 pm 15:20 Mostly Cloudy 43 6 39 4 87 87 WSW 9 15 29.74 1007 30 48 N/A
3:50 pm 15:50 Mostly Cloudy 43 6 39 4 87 87 SW 10 17 29.74 1007 30 48 N/A
4:20 pm 16:20 Mostly Cloudy 41 5 39 4 93 93 SW 8 13 29.74 1007 30 48 N/A
4:50 pm 16:50 Mostly Cloudy with Light Rain 41 5 39 4 93 93 SW 9 15 29.74 1007 30 48 N/A
5:20 pm 17:20 Mostly Cloudy 41 5 39 4 93 93 SW 10 17 29.74 1007 30 48 N/A
5:50 pm 17:50 Mostly Cloudy 41 5 39 4 93 93 SW 12 19 29.77 1008 30 48 N/A

Powered by AerisWeather